TimeMDT,TemperatureF,Dew PointF,Humidity,Sea Level PressureIn,VisibilityMPH,Wind Direction,Wind SpeedMPH,Gust SpeedMPH,PrecipitationIn,Events,Conditions,WindDirDegrees,DateUTC
1:00 AM,-4.0,-11.2,71,29.99,15.0,Calm,Calm,-,N/A,,Scattered Clouds,0,2012-10-05 07:00:00
2:00 AM,-2.2,-9.4,71,29.99,15.0,Calm,Calm,-,N/A,,Scattered Clouds,0,2012-10-05 08:00:00
3:00 AM,-2.2,-7.6,78,29.99,15.0,Calm,Calm,-,N/A,,Scattered Clouds,0,2012-10-05 09:00:00
4:00 AM,-4.0,-7.6,85,29.98,15.0,Calm,Calm,-,N/A,,Scattered Clouds,0,2012-10-05 10:00:00
4:42 AM,-9999,-9999,N/A,-9999,5.0,Calm,Calm,-,N/A,,Scattered Clouds,0,2012-10-05 10:42:00
5:00 AM,-9.4,-13.0,84,29.98,8.0,Calm,Calm,-,N/A,,Scattered Clouds,0,2012-10-05 11:00:00
6:00 AM,-9.4,-13.0,84,29.98,9.0,SSE,2.3,-,N/A,,Scattered Clouds,160,2012-10-05 12:00:00
7:00 AM,-5.8,-13.0,71,29.97,15.0,Calm,Calm,-,N/A,,Scattered Clouds,0,2012-10-05 13:00:00
8:00 AM,-7.6,-13.0,77,29.96,15.0,Calm,Calm,-,N/A,,Scattered Clouds,0,2012-10-05 14:00:00
9:00 AM,-5.8,-11.2,77,29.96,15.0,Calm,Calm,-,N/A,,Scattered Clouds,0,2012-10-05 15:00:00
10:00 AM,-7.6,-13.0,77,29.95,15.0,Calm,Calm,-,N/A,,Scattered Clouds,0,2012-10-05 16:00:00
11:00 AM,-11.2,-16.6,77,29.94,15.0,Calm,Calm,-,N/A,,Scattered Clouds,0,2012-10-05 17:00:00
12:00 PM,-9.4,-14.8,77,29.94,15.0,Calm,Calm,-,N/A,,Scattered Clouds,0,2012-10-05 18:00:00
1:00 PM,-7.6,-13.0,77,29.94,15.0,SSE,2.3,-,N/A,,Scattered Clouds,160,2012-10-05 19:00:00
2:00 PM,-5.8,-13.0,71,29.93,15.0,SSE,3.5,-,N/A,,Scattered Clouds,160,2012-10-05 20:00:00
3:00 PM,-5.8,-13.0,71,29.93,15.0,South,2.3,-,N/A,,Scattered Clouds,180,2012-10-05 21:00:00
4:00 PM,-4.0,-9.4,78,29.93,15.0,Calm,Calm,-,N/A,,Partly Cloudy,0,2012-10-05 22:00:00
5:00 PM,-4.0,-9.4,78,29.92,15.0,South,2.3,-,N/A,,Partly Cloudy,170,2012-10-05 23:00:00
6:00 PM,-5.8,-11.2,77,29.91,15.0,SSE,2.3,-,N/A,,Partly Cloudy,160,2012-10-06 00:00:00
7:00 PM,-4.0,-11.2,71,29.90,15.0,SE,2.3,-,N/A,,Partly Cloudy,140,2012-10-06 01:00:00